EA4BPO Weather Reports


Display with metric or nautical units.
time (UTC)temp
F
wind
direction
speed
MPH
gust
MPH
rain 1hr
in
rain 24hr
in
rain mn
in
humidity
%
barometer
mb
20260502170503 61 235 9.0 17.0 0.00 0.95 0.95 74 1014.8
20260502164003 61 242 6.0 11.0 0.00 0.95 0.95 73 1014.7
20260502163503 61 237 6.0 11.0 0.00 0.95 0.95 74 1014.9
20260502163003 61 234 6.0 11.0 0.00 0.95 0.95 73 1014.6
20260502162503 61 234 7.0 14.0 0.00 0.95 0.95 74 1014.8
20260502162003 62 234 8.0 14.0 0.00 0.95 0.95 74 1015.0
20260502161503 62 231 8.0 16.0 0.00 0.95 0.95 73 1014.8
20260502161003 62 229 9.0 16.0 0.00 0.95 0.95 74 1014.9
20260502160503 62 224 10.0 16.0 0.00 0.95 0.95 74 1014.8
20260502152003 66 192 9.0 18.0 0.00 0.95 0.95 68 1015.0
20260502151503 66 189 10.0 21.0 0.00 0.95 0.95 69 1014.8
20260502151003 67 191 10.0 21.0 0.00 0.95 0.95 67 1015.0
20260502150503 67 180 9.0 18.0 0.00 0.95 0.95 68 1015.1
20260502130503 57 257 1.0 3.0 0.63 0.94 0.94 97 1016.6
20260502123503 57 243 9.0 31.0 0.26 0.57 0.57 96 1017.4
20260502123003 63 184 4.0 9.0 0.00 0.31 0.31 78 1017.1
20260502122503 63 145 5.0 10.0 0.00 0.31 0.31 78 1016.5
20260502122003 63 148 5.0 10.0 0.00 0.31 0.31 77 1016.6
20260502121524 63 170 5.0 11.0 0.00 0.31 0.31 78 1016.9
20260502121003 63 166 6.0 13.0 0.00 0.31 0.31 78 1017.1
20260502120503 63 158 7.0 13.0 0.00 0.31 0.31 78 1016.9
20260502115503 64 153 5.0 11.0 0.00 0.31 0.31 78 1017.2
20260502115024 63 152 5.0 11.0 0.00 0.31 0.31 80 1017.2
20260502114503 63 165 5.0 11.0 0.00 0.31 0.31 80 1017.3
20260502114003 62 168 5.0 11.0 0.00 0.31 0.31 80 1017.3
20260502113524 63 170 5.0 10.0 0.00 0.31 0.31 81 1017.5
20260502113024 62 177 5.0 10.0 0.00 0.31 0.31 81 1017.7
20260502112503 62 191 5.0 10.0 0.00 0.31 0.31 81 1017.7
20260502112024 62 184 6.0 13.0 0.00 0.31 0.31 82 1017.6
20260502111503 61 187 6.0 13.0 0.00 0.31 0.31 82 1017.8
20260502111003 61 184 5.0 10.0 0.00 0.31 0.31 84 1017.8
20260502110503 61 175 4.0 10.0 0.00 0.31 0.31 86 1018.1
20260502110003 61 180 4.0 8.0 0.00 0.31 0.31 86 1017.9
20260502105503 61 165 4.0 9.0 0.00 0.31 0.31 88 1018.1
20260502105003 60 164 5.0 9.0 0.00 0.31 0.31 89 1018.0
20260502104503 60 172 6.0 11.0 0.00 0.31 0.31 90 1018.3
20260502104003 60 171 6.0 11.0 0.00 0.31 0.31 91 1018.2
20260502103503 59 158 5.0 9.0 0.00 0.31 0.31 93 1018.4
20260502103003 59 142 4.0 10.0 0.00 0.31 0.31 94 1018.1
20260502102503 59 141 4.0 10.0 0.00 0.31 0.31 94 1018.2
20260502102003 59 137 4.0 10.0 0.07 0.31 0.31 94 1018.4
20260502101503 59 132 5.0 10.0 0.07 0.31 0.31 95 1018.6
20260502101003 58 138 5.0 10.0 0.07 0.31 0.31 95 1018.7
20260502100503 58 140 4.0 8.0 0.07 0.31 0.31 96 1018.7
20260502091503 58 136 1.0 6.0 0.02 0.24 0.24 97 1018.6
20260502091003 58 111 1.0 3.0 0.02 0.24 0.24 97 1018.4
20260502090503 58 116 1.0 4.0 0.02 0.24 0.24 97 1018.2
20260502071503 57 154 1.0 6.0 0.02 0.06 0.06 96 1018.7
20260502071003 56 119 1.0 4.0 0.06 0.06 0.06 96 1018.7
20260502070503 57 121 1.0 6.0 0.06 0.06 0.06 96 1018.9
20260502070003 56 132 2.0 6.0 0.06 0.06 0.06 95 1018.3
20260502065503 56 140 2.0 6.0 0.06 0.06 0.06 95 1018.4
20260502065024 56 136 3.0 6.0 0.06 0.06 0.06 95 1018.7
20260502064503 56 128 2.0 6.0 0.06 0.06 0.06 95 1018.8
20260502064003 56 138 2.0 4.0 0.06 0.06 0.06 94 1018.8
20260502063503 57 155 2.0 4.0 0.06 0.06 0.06 94 1018.7
20260502063003 57 161 2.0 4.0 0.06 0.06 0.06 93 1018.9
20260502062503 57 172 2.0 7.0 0.06 0.06 0.06 93 1018.7
20260502062003 57 187 4.0 10.0 0.05 0.05 0.05 91 1019.0
20260502061524 58 198 5.0 10.0 0.04 0.04 0.04 89 1019.0
20260502061024 58 189 5.0 10.0 0.00 0.00 0.00 87 1019.0
20260502060503 58 160 5.0 10.0 0.00 0.00 0.00 87 1019.1
20260502060024 58 147 4.0 9.0 0.00 0.00 0.00 87 1018.6
20260502055503 58 145 4.0 8.0 0.00 0.00 0.00 87 1018.2
20260502055003 58 141 3.0 7.0 0.00 0.00 0.00 88 1018.3
20260502054503 58 138 3.0 7.0 0.00 0.00 0.00 88 1018.0
20260502054003 58 134 4.0 7.0 0.00 0.00 0.00 88 1018.0
20260502053503 58 124 4.0 9.0 0.00 0.00 0.00 88 1018.0
20260502053003 58 116 3.0 9.0 0.00 0.00 0.00 88 1017.9
20260502052524 58 111 3.0 7.0 0.00 0.00 0.00 88 1017.9
20260502052003 58 115 2.0 6.0 0.00 0.00 0.00 88 1018.2
20260502051503 58 124 2.0 6.0 0.00 0.00 0.00 88 1018.3
20260502051024 58 123 2.0 6.0 0.00 0.00 0.00 88 1018.1
20260502050503 58 118 2.0 6.0 0.00 0.00 0.00 87 1018.3
20260502050003 58 116 2.0 6.0 0.00 0.00 0.00 87 1018.3
20260502045524 58 124 2.0 7.0 0.00 0.00 0.00 86 1018.4
20260502044504 58 155 2.0 6.0 0.00 0.00 0.00 86 1018.8
20260502044003 58 144 2.0 6.0 0.00 0.00 0.00 86 1018.6
20260502043524 58 136 3.0 6.0 0.00 0.00 0.00 86 1018.4
20260502043003 58 137 3.0 6.0 0.00 0.00 0.00 86 1018.3
20260502042524 58 137 2.0 6.0 0.00 0.00 0.00 86 1018.2
20260502042003 58 145 2.0 4.0 0.00 0.00 0.00 86 1018.4
20260502041503 58 134 2.0 6.0 0.00 0.00 0.00 86 1018.3
20260502041003 58 100 2.0 6.0 0.00 0.00 0.00 86 1018.1
20260502040503 58 103 1.0 6.0 0.00 0.00 0.00 86 1018.0
20260502040024 58 114 1.0 3.0 0.00 0.00 0.00 86 1018.1
20260502035503 58 128 2.0 4.0 0.00 0.00 0.00 86 1018.3
20260502035024 58 134 2.0 4.0 0.00 0.00 0.00 86 1018.3
20260502034503 58 120 1.0 3.0 0.00 0.00 0.00 86 1018.6
20260502034003 58 127 1.0 3.0 0.00 0.00 0.00 85 1018.6
20260502033524 58 134 2.0 4.0 0.00 0.00 0.00 86 1018.7
20260502033003 58 129 2.0 6.0 0.00 0.00 0.00 86 1018.7
20260502032503 58 125 1.0 6.0 0.00 0.00 0.00 85 1018.6
20260502032003 58 115 0.0 3.0 0.00 0.00 0.00 85 1018.6
20260502031503 58 123 0.0 3.0 0.00 0.00 0.00 85 1018.4
20260502031003 58 136 0.0 3.0 0.00 0.00 0.00 85 1018.3
20260502030503 58 122 2.0 7.0 0.00 0.00 0.00 86 1018.6
20260502030003 58 136 3.0 7.0 0.00 0.00 0.00 85 1018.7
20260502025503 58 140 3.0 7.0 0.00 0.00 0.00 86 1018.6
20260502025003 58 133 3.0 8.0 0.00 0.00 0.00 86 1018.6
20260502024503 58 138 3.0 8.0 0.00 0.00 0.00 85 1018.6
20260502024003 58 151 4.0 9.0 0.00 0.00 0.00 85 1018.7
20260502023503 58 161 5.0 9.0 0.00 0.00 0.00 85 1018.6
20260502023003 58 163 5.0 9.0 0.00 0.00 0.00 85 1018.8
20260502022503 58 156 4.0 9.0 0.00 0.00 0.00 85 1018.9
20260502022003 58 146 3.0 8.0 0.00 0.00 0.00 85 1018.8
20260502021503 58 145 4.0 8.0 0.00 0.00 0.00 85 1018.6
20260502021024 58 153 5.0 10.0 0.00 0.00 0.00 85 1018.6
20260502020503 58 157 5.0 11.0 0.00 0.00 0.00 85 1018.8
20260502020003 58 156 6.0 11.0 0.00 0.00 0.00 85 1018.8
20260502015524 58 155 7.0 11.0 0.00 0.00 0.00 84 1018.8
20260502015024 58 152 6.0 10.0 0.00 0.00 0.00 84 1018.6
20260502014503 59 149 5.0 10.0 0.00 0.00 0.00 84 1018.8
20260502014003 59 147 5.0 10.0 0.00 0.00 0.00 84 1018.8
20260502013503 59 146 5.0 10.0 0.00 0.00 0.00 84 1019.0
20260502013003 59 153 5.0 13.0 0.00 0.00 0.00 84 1018.8
20260502012503 59 148 5.0 13.0 0.00 0.00 0.00 83 1019.0
20260502012003 59 136 4.0 8.0 0.00 0.00 0.00 83 1018.8
20260502011503 59 142 4.0 9.0 0.00 0.00 0.00 83 1019.1
20260502011003 59 146 4.0 9.0 0.00 0.00 0.00 83 1019.2
20260502010503 59 148 4.0 9.0 0.00 0.00 0.00 83 1019.3
20260502010003 59 144 5.0 13.0 0.00 0.00 0.00 82 1019.2
20260502005524 59 145 6.0 15.0 0.00 0.00 0.00 82 1019.3
20260502005003 60 156 8.0 16.0 0.00 0.00 0.00 82 1019.3
20260502004503 60 155 7.0 16.0 0.00 0.00 0.00 82 1019.6
20260502004003 60 138 5.0 14.0 0.00 0.00 0.00 82 1019.4
20260502003503 60 153 5.0 10.0 0.00 0.00 0.00 82 1019.2
20260502003003 60 157 6.0 14.0 0.00 0.00 0.00 82 1019.4
20260502002503 60 145 6.0 14.0 0.00 0.00 0.00 82 1019.4
20260502002003 60 147 6.0 13.0 0.00 0.00 0.00 82 1019.4
20260502001503 60 148 6.0 13.0 0.00 0.00 0.00 81 1019.3
20260502001003 60 144 6.0 14.0 0.00 0.00 0.00 81 1019.4
20260502000503 60 139 6.0 14.0 0.00 0.00 0.00 81 1019.4
20260502000003 61 141 5.0 11.0 0.00 0.00 0.00 81 1019.3
20260501235524 61 139 4.0 8.0 0.00 0.00 0.00 80 1019.5
20260501235003 61 131 3.0 8.0 0.00 0.00 0.00 80 1019.4
20260501234503 61 156 4.0 10.0 0.00 0.00 0.00 79 1019.6
20260501234003 61 171 5.0 10.0 0.00 0.00 0.00 79 1019.8
20260501233503 61 174 5.0 10.0 0.00 0.00 0.00 79 1019.9
20260501233024 61 173 5.0 10.0 0.00 0.00 0.00 79 1019.9
20260501232525 62 174 4.0 7.0 0.00 0.00 0.00 78 1019.7
20260501232003 62 168 5.0 10.0 0.00 0.00 0.00 78 1019.5
20260501231504 62 160 5.0 10.0 0.00 0.00 0.00 78 1019.6
20260501231003 62 162 5.0 10.0 0.00 0.00 0.00 78 1019.7
20260501230503 62 173 5.0 11.0 0.00 0.00 0.00 77 1019.6
20260501230003 62 175 6.0 14.0 0.00 0.00 0.00 77 1019.8
20260501225503 62 170 7.0 15.0 0.00 0.00 0.00 76 1019.6
20260501225003 62 168 7.0 15.0 0.00 0.00 0.00 76 1019.7
20260501224524 63 168 6.0 15.0 0.00 0.00 0.00 76 1019.7